User: anonymous   Login
Location: Bonny Doon Airfield
(37.0704°N, 122.1252°W)
Time: 05:49:24
(UTC-08:00)
Language:

Tiangong 2 - Orbit

View from above orbital plane
View from above orbital plane
View from above satellite
View from above satellite

Ground track
Ground track

The orbit data is extracted from the following two-line orbital elements,

1 41765U 16057A   17351.09700881  .00004977  00000-0  64799-4 0  9998
2 41765  42.7851 347.8222 0002360  46.0414  33.0831 15.59847757 71532
Epoch (UTC): 17 December 2017 02:19:41
Eccentricity: 0.0002360
inclination: 42.7851°
perigee height: 386 km
apogee height: 390 km
right ascension of ascending node: 347.8222°
argument of perigee: 46.0414°
revolutions per day: 15.59847757
mean anomaly at epoch: 33.0831°
orbit number at epoch: 7153

The dashed part of the orbit path shows where the satellite is in the earth's shadow,  

DLR